Time,TemperatureF,DewpointF,PressureIn,WindDirection,WindDirectionDegrees,WindSpeedMPH,WindSpeedGustMPH,Humidity,HourlyPrecipIn,Conditions,Clouds,dailyrainin,SoftwareType,DateUTC
2013-01-20 00:08:00,44.1,28.0,29.98,SW,224,0.0,-999.0,54,-99.99,,,0.00,weatherlink.com 1.10,2013-01-20 05:08:00,
2013-01-20 00:23:00,43.9,28.0,29.96,WSW,239,10.0,-999.0,54,-99.99,,,0.00,weatherlink.com 1.10,2013-01-20 05:23:00,
2013-01-20 00:38:00,44.1,28.0,29.95,SW,232,12.0,-999.0,54,-99.99,,,0.00,weatherlink.com 1.10,2013-01-20 05:38:00,
2013-01-20 01:08:00,44.6,28.0,29.93,WSW,248,12.0,-999.0,53,-99.99,,,0.00,weatherlink.com 1.10,2013-01-20 06:08:00,
2013-01-20 01:23:00,44.8,28.0,29.93,SW,231,14.0,-999.0,52,-99.99,,,0.00,weatherlink.com 1.10,2013-01-20 06:23:00,
2013-01-20 01:38:00,44.8,28.0,29.92,WSW,245,19.0,-999.0,52,-99.99,,,0.00,weatherlink.com 1.10,2013-01-20 06:38:00,
2013-01-20 01:53:00,45.1,28.0,29.91,SW,227,10.0,-999.0,52,-99.99,,,0.00,weatherlink.com 1.10,2013-01-20 06:53:00,
2013-01-20 02:08:00,45.1,28.0,29.91,SW,236,0.0,-999.0,51,-99.99,,,0.00,weatherlink.com 1.10,2013-01-20 07:08:00,
2013-01-20 02:23:00,45.2,28.0,29.91,SSW,200,2.0,-999.0,51,-99.99,,,0.00,weatherlink.com 1.10,2013-01-20 07:23:00,
2013-01-20 02:38:00,45.4,28.0,29.91,SW,222,1.0,-999.0,51,-99.99,,,0.00,weatherlink.com 1.10,2013-01-20 07:38:00,
2013-01-20 02:53:00,45.1,28.0,29.91,SW,228,0.0,-999.0,51,-99.99,,,0.00,weatherlink.com 1.10,2013-01-20 07:53:00,
2013-01-20 03:08:00,44.9,28.0,29.90,WSW,242,3.0,-999.0,51,-99.99,,,0.00,weatherlink.com 1.10,2013-01-20 08:08:00,
2013-01-20 03:23:00,44.9,28.0,29.89,WSW,249,4.0,-999.0,52,-99.99,,,0.00,weatherlink.com 1.10,2013-01-20 08:23:00,
2013-01-20 03:38:00,44.8,28.0,29.89,SW,233,6.0,-999.0,52,-99.99,,,0.00,weatherlink.com 1.10,2013-01-20 08:38:00,
2013-01-20 03:53:00,44.3,28.0,29.89,South,183,5.0,-999.0,53,-99.99,,,0.00,weatherlink.com 1.10,2013-01-20 08:53:00,
2013-01-20 04:08:00,43.9,28.0,29.88,WSW,252,2.0,-999.0,53,-99.99,,,0.00,weatherlink.com 1.10,2013-01-20 09:08:00,
2013-01-20 04:23:00,43.5,28.0,29.88,WSW,252,1.0,-999.0,54,-99.99,,,0.00,weatherlink.com 1.10,2013-01-20 09:23:00,
2013-01-20 04:38:00,43.2,28.0,29.88,West,264,0.0,-999.0,55,-99.99,,,0.00,weatherlink.com 1.10,2013-01-20 09:38:00,
2013-01-20 04:53:00,42.6,28.0,29.88,SW,224,2.0,-999.0,56,-99.99,,,0.00,weatherlink.com 1.10,2013-01-20 09:53:00,
2013-01-20 05:08:00,42.5,28.0,29.87,SSW,212,0.0,-999.0,56,-99.99,,,0.00,weatherlink.com 1.10,2013-01-20 10:08:00,
2013-01-20 05:23:00,42.2,28.0,29.87,SW,233,0.0,-999.0,57,-99.99,,,0.00,weatherlink.com 1.10,2013-01-20 10:23:00,
2013-01-20 05:38:00,41.9,27.0,29.87,SW,227,3.0,-999.0,57,-99.99,,,0.00,weatherlink.com 1.10,2013-01-20 10:38:00,
2013-01-20 05:53:00,42.1,28.0,29.87,South,187,1.0,-999.0,57,-99.99,,,0.00,weatherlink.com 1.10,2013-01-20 10:53:00,
2013-01-20 06:08:00,41.8,27.0,29.86,SW,232,0.0,-999.0,57,-99.99,,,0.00,weatherlink.com 1.10,2013-01-20 11:08:00,
2013-01-20 06:23:00,41.8,27.0,29.86,SW,228,1.0,-999.0,57,-99.99,,,0.00,weatherlink.com 1.10,2013-01-20 11:23:00,
2013-01-20 06:38:00,41.5,28.0,29.86,SW,233,2.0,-999.0,58,-99.99,,,0.00,weatherlink.com 1.10,2013-01-20 11:38:00,
2013-01-20 06:53:00,41.5,28.0,29.86,SW,234,4.0,-999.0,58,-99.99,,,0.00,weatherlink.com 1.10,2013-01-20 11:53:00,
2013-01-20 07:08:00,41.5,28.0,29.86,SW,234,0.0,-999.0,58,-99.99,,,0.00,weatherlink.com 1.10,2013-01-20 12:08:00,
2013-01-20 07:23:00,41.2,28.0,29.86,SW,227,0.0,-999.0,59,-99.99,,,0.00,weatherlink.com 1.10,2013-01-20 12:23:00,
2013-01-20 07:38:00,40.9,28.0,29.87,South,180,2.0,-999.0,60,-99.99,,,0.00,weatherlink.com 1.10,2013-01-20 12:38:00,
2013-01-20 07:53:00,41.3,28.0,29.87,SW,224,4.0,-999.0,59,-99.99,,,0.00,weatherlink.com 1.10,2013-01-20 12:53:00,
2013-01-20 08:23:00,42.6,29.0,29.86,SSW,208,4.0,-999.0,58,-99.99,,,0.00,weatherlink.com 1.10,2013-01-20 13:23:00,
2013-01-20 08:38:00,43.5,29.0,29.87,SW,216,1.0,-999.0,56,-99.99,,,0.00,weatherlink.com 1.10,2013-01-20 13:38:00,
2013-01-20 08:53:00,44.3,29.0,29.87,SSW,207,9.0,-999.0,56,-99.99,,,0.00,weatherlink.com 1.10,2013-01-20 13:53:00,
2013-01-20 09:08:00,45.4,29.0,29.87,SW,214,1.0,-999.0,53,-99.99,,,0.00,weatherlink.com 1.10,2013-01-20 14:08:00,
2013-01-20 09:23:00,46.2,29.0,29.87,SSW,201,10.0,-999.0,52,-99.99,,,0.00,weatherlink.com 1.10,2013-01-20 14:23:00,
2013-01-20 09:38:00,47.4,30.0,29.88,WSW,237,3.0,-999.0,51,-99.99,,,0.00,weatherlink.com 1.10,2013-01-20 14:38:00,
2013-01-20 09:53:00,48.9,30.0,29.88,SSW,211,1.0,-999.0,49,-99.99,,,0.00,weatherlink.com 1.10,2013-01-20 14:53:00,
2013-01-20 10:08:00,50.4,31.0,29.88,SW,229,4.0,-999.0,47,-99.99,,,0.00,weatherlink.com 1.10,2013-01-20 15:08:00,
2013-01-20 10:23:00,51.7,31.0,29.88,SSW,205,7.0,-999.0,45,-99.99,,,0.00,weatherlink.com 1.10,2013-01-20 15:23:00,
2013-01-20 10:38:00,52.6,30.0,29.87,WSW,249,5.0,-999.0,43,-99.99,,,0.00,weatherlink.com 1.10,2013-01-20 15:38:00,
2013-01-20 10:53:00,53.5,31.0,29.87,WSW,243,8.0,-999.0,43,-99.99,,,0.00,weatherlink.com 1.10,2013-01-20 15:53:00,
2013-01-20 11:08:00,54.1,31.0,29.86,WSW,255,6.0,-999.0,42,-99.99,,,0.00,weatherlink.com 1.10,2013-01-20 16:08:00,
2013-01-20 11:23:00,55.0,32.0,29.85,SW,233,1.0,-999.0,42,-99.99,,,0.00,weatherlink.com 1.10,2013-01-20 16:23:00,
2013-01-20 11:38:00,55.9,31.0,29.84,SW,233,4.0,-999.0,39,-99.99,,,0.00,weatherlink.com 1.10,2013-01-20 16:38:00,
2013-01-20 11:53:00,56.2,32.0,29.84,WSW,258,4.0,-999.0,40,-99.99,,,0.00,weatherlink.com 1.10,2013-01-20 16:53:00,
2013-01-20 12:08:00,56.7,31.0,29.83,West,262,1.0,-999.0,38,-99.99,,,0.00,weatherlink.com 1.10,2013-01-20 17:08:00,
2013-01-20 12:23:00,56.6,30.0,29.82,West,281,4.0,-999.0,37,-99.99,,,0.00,weatherlink.com 1.10,2013-01-20 17:23:00,
2013-01-20 12:38:00,56.9,31.0,29.82,WNW,284,14.0,-999.0,38,-99.99,,,0.00,weatherlink.com 1.10,2013-01-20 17:38:00,
2013-01-20 12:53:00,56.7,32.0,29.82,SW,234,9.0,-999.0,39,-99.99,,,0.00,weatherlink.com 1.10,2013-01-20 17:53:00,
2013-01-20 13:08:00,56.9,32.0,29.82,West,280,0.0,-999.0,39,-99.99,,,0.00,weatherlink.com 1.10,2013-01-20 18:08:00,
2013-01-20 13:23:00,57.5,31.0,29.82,West,276,3.0,-999.0,37,-99.99,,,0.00,weatherlink.com 1.10,2013-01-20 18:23:00,
2013-01-20 13:38:00,58.1,30.0,29.82,WNW,287,0.0,-999.0,34,-99.99,,,0.00,weatherlink.com 1.10,2013-01-20 18:38:00,
2013-01-20 13:53:00,58.6,29.0,29.82,NW,305,9.0,-999.0,33,-99.99,,,0.00,weatherlink.com 1.10,2013-01-20 18:53:00,
2013-01-20 14:08:00,58.6,29.0,29.82,WNW,296,2.0,-999.0,33,-99.99,,,0.00,weatherlink.com 1.10,2013-01-20 19:08:00,
2013-01-20 14:23:00,58.9,28.0,29.82,NW,306,5.0,-999.0,31,-99.99,,,0.00,weatherlink.com 1.10,2013-01-20 19:23:00,
2013-01-20 14:38:00,58.6,25.0,29.83,WNW,288,12.0,-999.0,28,-99.99,,,0.00,weatherlink.com 1.10,2013-01-20 19:38:00,
2013-01-20 14:53:00,58.3,24.0,29.84,WNW,287,4.0,-999.0,27,-99.99,,,0.00,weatherlink.com 1.10,2013-01-20 19:53:00,
2013-01-20 15:08:00,57.8,23.0,29.84,West,276,8.0,-999.0,26,-99.99,,,0.00,weatherlink.com 1.10,2013-01-20 20:08:00,
2013-01-20 15:23:00,57.3,23.0,29.85,NNW,341,9.0,-999.0,27,-99.99,,,0.00,weatherlink.com 1.10,2013-01-20 20:23:00,
2013-01-20 15:38:00,57.0,22.0,29.86,WNW,300,10.0,-999.0,26,-99.99,,,0.00,weatherlink.com 1.10,2013-01-20 20:38:00,
2013-01-20 15:53:00,56.2,22.0,29.87,NNW,329,11.0,-999.0,26,-99.99,,,0.00,weatherlink.com 1.10,2013-01-20 20:53:00,
2013-01-20 16:08:00,55.1,21.0,29.88,NW,310,2.0,-999.0,26,-99.99,,,0.00,weatherlink.com 1.10,2013-01-20 21:08:00,
2013-01-20 16:23:00,54.5,20.0,29.89,NNW,328,7.0,-999.0,26,-99.99,,,0.00,weatherlink.com 1.10,2013-01-20 21:23:00,
2013-01-20 16:38:00,53.9,20.0,29.90,WNW,302,18.0,-999.0,26,-99.99,,,0.00,weatherlink.com 1.10,2013-01-20 21:38:00,
2013-01-20 16:53:00,53.2,18.0,29.91,NW,309,5.0,-999.0,25,-99.99,,,0.00,weatherlink.com 1.10,2013-01-20 21:53:00,
2013-01-20 17:08:00,52.3,16.0,29.92,North,356,0.0,-999.0,24,-99.99,,,0.00,weatherlink.com 1.10,2013-01-20 22:08:00,
2013-01-20 17:23:00,51.6,16.0,29.93,NW,317,3.0,-999.0,24,-99.99,,,0.00,weatherlink.com 1.10,2013-01-20 22:23:00,
2013-01-20 17:38:00,50.8,14.0,29.94,NNW,330,4.0,-999.0,23,-99.99,,,0.00,weatherlink.com 1.10,2013-01-20 22:38:00,
2013-01-20 17:53:00,49.9,14.0,29.95,NNW,331,0.0,-999.0,24,-99.99,,,0.00,weatherlink.com 1.10,2013-01-20 22:53:00,
2013-01-20 18:08:00,48.9,14.0,29.96,North,9,4.0,-999.0,25,-99.99,,,0.00,weatherlink.com 1.10,2013-01-20 23:08:00,
2013-01-20 18:38:00,47.4,13.0,29.98,NW,304,5.0,-999.0,25,-99.99,,,0.00,weatherlink.com 1.10,2013-01-20 23:38:00,
2013-01-20 18:53:00,46.7,13.0,29.98,NW,319,5.0,-999.0,26,-99.99,,,0.00,weatherlink.com 1.10,2013-01-20 23:53:00,
2013-01-20 19:08:00,45.8,13.0,29.99,NW,305,9.0,-999.0,26,-99.99,,,0.00,weatherlink.com 1.10,2013-01-21 00:08:00,
2013-01-20 19:23:00,45.2,12.0,30.00,West,269,0.0,-999.0,26,-99.99,,,0.00,weatherlink.com 1.10,2013-01-21 00:23:00,
2013-01-20 19:38:00,44.2,11.0,30.01,NW,316,0.0,-999.0,26,-99.99,,,0.00,weatherlink.com 1.10,2013-01-21 00:38:00,
2013-01-20 19:53:00,43.8,11.0,30.02,WSW,257,0.0,-999.0,26,-99.99,,,0.00,weatherlink.com 1.10,2013-01-21 00:53:00,
2013-01-20 20:08:00,43.1,11.0,30.03,NNW,343,0.0,-999.0,27,-99.99,,,0.00,weatherlink.com 1.10,2013-01-21 01:08:00,
2013-01-20 20:23:00,42.3,11.0,30.04,NW,304,4.0,-999.0,28,-99.99,,,0.00,weatherlink.com 1.10,2013-01-21 01:23:00,
2013-01-20 20:38:00,41.9,12.0,30.04,North,355,0.0,-999.0,30,-99.99,,,0.00,weatherlink.com 1.10,2013-01-21 01:38:00,
2013-01-20 20:53:00,41.1,12.0,30.04,NW,311,0.0,-999.0,31,-99.99,,,0.00,weatherlink.com 1.10,2013-01-21 01:53:00,
2013-01-20 21:08:00,40.3,12.0,30.05,NNW,338,0.0,-999.0,32,-99.99,,,0.00,weatherlink.com 1.10,2013-01-21 02:08:00,
2013-01-20 21:23:00,39.9,12.0,30.05,NNW,332,1.0,-999.0,32,-99.99,,,0.00,weatherlink.com 1.10,2013-01-21 02:23:00,
2013-01-20 21:38:00,39.8,11.0,30.06,WNW,299,0.0,-999.0,31,-99.99,,,0.00,weatherlink.com 1.10,2013-01-21 02:38:00,
2013-01-20 21:53:00,39.2,11.0,30.06,NNW,330,0.0,-999.0,32,-99.99,,,0.00,weatherlink.com 1.10,2013-01-21 02:53:00,
2013-01-20 22:08:00,37.5,13.0,30.07,NNW,331,0.0,-999.0,37,-99.99,,,0.00,weatherlink.com 1.10,2013-01-21 03:08:00,
2013-01-20 22:23:00,36.2,14.0,30.07,NNW,331,0.0,-999.0,40,-99.99,,,0.00,weatherlink.com 1.10,2013-01-21 03:23:00,
2013-01-20 22:38:00,36.0,13.0,30.07,NNW,328,0.0,-999.0,39,-99.99,,,0.00,weatherlink.com 1.10,2013-01-21 03:38:00,
2013-01-20 22:53:00,36.5,14.0,30.08,NNW,328,0.0,-999.0,39,-99.99,,,0.00,weatherlink.com 1.10,2013-01-21 03:53:00,
2013-01-20 23:08:00,34.9,14.0,30.09,NNW,328,0.0,-999.0,43,-99.99,,,0.00,weatherlink.com 1.10,2013-01-21 04:08:00,
2013-01-20 23:23:00,33.8,15.0,30.09,NNW,328,0.0,-999.0,46,-99.99,,,0.00,weatherlink.com 1.10,2013-01-21 04:23:00,
2013-01-20 23:38:00,34.0,16.0,30.08,North,351,0.0,-999.0,48,-99.99,,,0.00,weatherlink.com 1.10,2013-01-21 04:38:00,
2013-01-20 23:53:00,34.4,14.0,30.08,North,351,0.0,-999.0,44,-99.99,,,0.00,weatherlink.com 1.10,2013-01-21 04:53:00,